[[{"header":{"parameterUnit":"m.s-1","parameterCategory":1,"la1":30.2991,"la2":30.254,"lo1":-89.0895,"lo2":-89.0444,"dy":0.0017,"dx":0.0017,"nx":28,"ny":28,"refTime":"2025-05-23T21:00:00:Z","depth":0,"parameterNumber":2,"parameterNumberName":"U-component_of_WINDS"},"data":[0,0,0,0,0,0,0,0,0,0,0,0,0,0,0,0,0,0,0,0,0,0,0,0,0,0,0,0,0,0,0,0,0,0,0,0,0,0,0,0,0,0,0,0,0,0,0,0,0,0,0,0,0,0,0,0,0,0,-1.4062,-1.4062,0,-1.4074,-1.4074,-1.4074,-1.4047,-1.4046,-1.4045,-1.4045,-1.4057,-1.4059,-1.406,0,0,0,0,0,0,0,0,0,0,0,0,0,-1.4017,-1.4018,-1.4062,-1.4062,-1.4062,-1.4073,-1.4074,-1.4074,-1.4047,-1.4046,-1.4045,-1.4044,-1.4057,-1.4058,-1.406,0,0,0,0,0,0,0,0,0,0,0,0,0,-1.4034,-1.4019,-1.4062,-1.405,-1.4049,-1.4073,-1.4074,-1.4074,-1.4048,-1.4046,-1.4045,-1.4044,-1.4057,-1.4058,-1.406,-1.4096,0,0,-1.4065,-1.4066,0,0,0,0,0,0,0,0,-1.4033,-1.4035,-1.4052,-1.4051,-1.405,-1.4058,-1.4063,-1.4081,-1.4048,-1.4048,-1.4045,-1.4043,-1.4059,-1.406,-1.4065,-1.4097,-1.4097,-1.4065,-1.4066,-1.4067,-1.4068,0,0,0,0,0,0,0,-1.4032,-1.4035,-1.4066,-1.4052,-1.4051,-1.4045,-1.4046,-1.4066,-1.406,-1.4048,-1.4046,-1.4048,-1.4058,-1.4063,-1.4065,-1.4097,-1.4065,-1.4067,-1.4068,-1.4069,-1.416,-1.4161,0,0,0,0,0,0,-1.4032,-1.4034,-1.4066,-1.4067,-1.4038,-1.4047,-1.4048,-1.4056,-1.406,-1.4059,-1.4049,-1.4047,-1.4061,-1.4063,-1.4066,-1.4108,-1.4067,-1.4069,-1.407,-1.4159,-1.416,-1.4162,0,0,0,0,0,0,-1.4031,-1.4035,-1.4066,-1.405,-1.4053,-1.4049,-1.4059,-1.4057,-1.4063,-1.4061,-1.406,-1.4056,-1.406,-1.4063,-1.4089,-1.4108,-1.4069,-1.4071,-1.4157,-1.4159,-1.4161,-1.4194,0,0,0,0,0,0,-1.403,-1.4035,-1.4048,-1.405,-1.4054,-1.4088,-1.406,-1.4059,-1.4066,-1.4063,-1.4067,-1.4066,-1.4059,-1.4086,-1.4091,-1.411,-1.4072,-1.4155,-1.4158,-1.416,-1.4191,-1.4197,-1.4202,0,0,0,0,0,-1.4028,-1.4057,-1.4049,-1.4053,-1.4071,-1.4089,-1.4092,-1.4083,-1.4068,-1.4081,-1.408,-1.4066,-1.4106,-1.4089,-1.4094,-1.4114,-1.4154,-1.4157,-1.416,-1.4189,-1.4196,-1.4202,0,0,0,0,0,0,-1.4058,-1.4057,-1.4048,-1.4078,-1.4084,-1.4085,-1.4102,-1.4091,-1.4101,-1.4098,-1.4087,-1.4088,-1.4116,-1.4118,-1.4099,-1.4149,-1.4127,-1.4131,-1.4147,-1.4154,-1.416,-1.4159,-1.4074,0,0,0,0,0,-1.4068,-1.4083,-1.4081,-1.4108,-1.4112,-1.4106,-1.4114,-1.4107,-1.4113,-1.4115,-1.4116,-1.4122,-1.4136,-1.4145,-1.4158,-1.4192,-1.4192,-1.4208,-1.4213,-1.4218,-1.4221,-1.424,-1.4247,-1.4172,-1.4172,-1.4172,0,0,-1.4088,-1.409,-1.41,-1.4114,-1.4118,-1.4134,-1.4109,-1.4126,-1.4138,-1.4118,-1.4142,-1.4143,-1.4149,-1.4179,-1.4193,-1.4181,-1.4242,-1.4222,-1.4225,-1.4227,-1.4244,-1.4251,-1.4257,-1.4174,-1.4174,-1.4174,0,0,-1.4134,-1.4137,-1.4159,-1.4164,-1.417,-1.4166,-1.4172,-1.4174,-1.4174,-1.4198,-1.4183,-1.4197,-1.4221,-1.4227,-1.4232,-1.4281,-1.4269,-1.4286,-1.4314,-1.4332,-1.4338,-1.4343,-1.4361,-1.4367,-1.4289,-1.4289,-1.429,0,-1.4159,-1.4182,-1.4173,-1.4192,-1.4199,-1.4181,-1.4204,-1.4209,-1.4218,-1.4224,-1.4211,-1.4241,-1.4244,-1.4275,-1.4287,-1.4293,-1.4299,-1.4285,-1.4338,-1.4343,-1.4348,-1.4364,-1.4371,-1.4291,-1.4291,-1.4291,-1.4291,0,-1.4213,-1.423,-1.4247,-1.4257,-1.4266,-1.4287,-1.4281,-1.4291,-1.4284,-1.4282,-1.4307,-1.431,-1.4323,-1.433,-1.4323,-1.436,-1.4353,-1.4339,-1.4317,-1.4357,-1.4372,-1.4379,-1.4294,-1.4294,-1.4293,-1.4292,0,0,-1.4277,-1.4282,-1.4288,-1.4293,-1.4298,-1.4311,-1.4331,-1.4344,-1.4353,-1.4361,-1.4378,-1.4399,-1.4387,-1.4393,-1.4387,-1.4403,-1.4441,-1.4387,-1.4387,-1.4397,-1.4484,-1.4494,-1.4502,-1.4434,-1.4435,-1.4436,-1.4483,0,-1.4323,-1.4358,-1.435,-1.4384,-1.44,-1.4383,-1.4401,-1.4407,-1.4406,-1.4419,-1.4418,-1.4433,-1.4415,-1.4419,-1.4434,-1.4433,-1.4459,-1.443,-1.445,-1.4451,-1.4449,-1.451,-1.4521,-1.4565,-1.4489,-1.449,-1.4491,0,-1.438,-1.439,-1.4426,-1.4429,-1.4436,-1.4452,-1.4463,-1.4476,-1.4482,-1.448,-1.4488,-1.4478,-1.4499,-1.4477,-1.4506,-1.4487,-1.4494,-1.4495,-1.4497,-1.4498,-1.4473,-1.4513,-1.4579,-1.4586,-1.45,-1.45,-1.4499,0,-1.4424,-1.4446,-1.447,-1.4475,-1.4479,-1.4491,-1.4493,-1.4498,-1.4507,-1.4517,-1.4522,-1.4535,-1.4542,-1.4552,-1.4546,-1.453,-1.4576,-1.4553,-1.4576,-1.4576,-1.4586,-1.4585,-1.4655,-1.4591,-1.4591,-1.4591,-1.4591,0,-1.4476,-1.4498,-1.449,-1.4505,-1.453,-1.4521,-1.4547,-1.4547,-1.4552,-1.4567,-1.4554,-1.4569,-1.4561,-1.4575,-1.4571,-1.4596,-1.4599,-1.4598,-1.4597,-1.4599,-1.46,-1.4604,-1.4601,-1.4593,-1.4592,-1.4592,-1.4592,0,-1.4529,-1.4524,-1.4549,-1.4551,-1.4552,-1.4571,-1.4573,-1.4587,-1.4585,-1.4605,-1.4609,-1.4606,-1.4623,-1.4618,-1.4636,-1.4633,-1.4664,-1.4659,-1.4662,-1.4661,-1.4684,-1.4682,-1.4759,-1.4768,-1.4698,-1.4699,-1.47,0,-1.4562,-1.4579,-1.4583,-1.4592,-1.4595,-1.461,-1.4619,-1.4611,-1.462,-1.4629,-1.4642,-1.4657,-1.4669,-1.4696,-1.4695,-1.4709,-1.4704,-1.473,-1.4706,-1.4708,-1.4705,-1.4704,-1.4706,-1.4735,-1.4736,-1.4736,-1.4737,0,-1.4622,-1.4619,-1.4631,-1.4643,-1.4653,-1.4662,-1.467,-1.4678,-1.4671,-1.4682,-1.4698,-1.4707,-1.4725,-1.4741,-1.4753,-1.4756,-1.4746,-1.4744,-1.475,-1.4753,-1.4754,-1.4754,-1.4675,-1.4743,-1.4742,-1.4742,-1.4741,-1.4741,-1.4666,-1.4681,-1.4686,-1.47,-1.4705,-1.4713,-1.4726,-1.4726,-1.4739,-1.4753,-1.4748,-1.4767,-1.4773,-1.4789,-1.4793,-1.4808,-1.4799,-1.4807,-1.4809,-1.4812,-1.4815,-1.4752,-1.4811,-1.481,-1.481,-1.481,-1.481,0,-1.4725,-1.4728,-1.4741,-1.4752,-1.4764,-1.4752,-1.476,-1.4771,-1.4788,-1.4794,-1.4806,-1.4825,-1.484,-1.4841,-1.4855,-1.4867,-1.4863,-1.4871,-1.487,-1.4871,-1.4823,-1.4816,-1.4874,-1.4874,-1.4874,-1.4874,-1.4874,-1.4874,-1.4758,-1.4782,-1.4779,-1.4806,-1.4808,-1.4827,-1.4832,-1.484,-1.4845,-1.4867,-1.4879,-1.4879,-1.4884,-1.4898,-1.4912,-1.4912,-1.4918,-1.4928,-1.4926,-1.4881,-1.4875,-1.4868,-1.4862,-1.4929,-1.493,-1.4974,-1.4974,-1.4975]},{"header":{"parameterUnit":"m.s-1","parameterCategory":1,"la1":30.2991,"la2":30.254,"lo1":-89.0895,"lo2":-89.0444,"dy":0.0017,"dx":0.0017,"nx":28,"ny":28,"refTime":"2025-05-23T21:00:00:Z","depth":0,"parameterNumber":3,"parameterNumberName":"V-component_of_WINDS"},"data":[0,0,0,0,0,0,0,0,0,0,0,0,0,0,0,0,0,0,0,0,0,0,0,0,0,0,0,0,0,0,0,0,0,0,0,0,0,0,0,0,0,0,0,0,0,0,0,0,0,0,0,0,0,0,0,0,0,0,4.939,4.939,0,4.9354,4.9354,4.9353,4.9332,4.9332,4.9332,4.9332,4.929,4.9289,4.9288,0,0,0,0,0,0,0,0,0,0,0,0,0,4.9439,4.9439,4.939,4.939,4.939,4.9354,4.9354,4.9353,4.9332,4.9332,4.9332,4.9332,4.9291,4.9289,4.9288,0,0,0,0,0,0,0,0,0,0,0,0,0,4.9412,4.9438,4.9391,4.9375,4.9373,4.9354,4.9354,4.9353,4.9332,4.9332,4.9332,4.9332,4.9291,4.9289,4.9288,4.928,0,0,4.9283,4.9282,0,0,0,0,0,0,0,0,4.9414,4.941,4.9378,4.9376,4.9374,4.9348,4.9355,4.9328,4.9333,4.9348,4.9332,4.9332,4.9309,4.9306,4.9299,4.9278,4.9276,4.9283,4.9282,4.9281,4.9281,0,0,0,0,0,0,0,4.9416,4.9412,4.9376,4.9377,4.9375,4.9369,4.9365,4.935,4.9329,4.9347,4.9345,4.9341,4.9308,4.9301,4.9298,4.9275,4.9283,4.9281,4.928,4.928,4.9247,4.9247,0,0,0,0,0,0,4.942,4.9413,4.9377,4.9375,4.9394,4.9368,4.9364,4.9356,4.9329,4.9325,4.9341,4.934,4.9304,4.93,4.9296,4.9286,4.9281,4.928,4.9279,4.9247,4.9247,4.9247,0,0,0,0,0,0,4.9422,4.9417,4.9378,4.9394,4.9388,4.9368,4.9359,4.9356,4.9348,4.9326,4.9321,4.9338,4.9303,4.9299,4.9285,4.9284,4.9279,4.9277,4.9247,4.9247,4.9247,4.9265,0,0,0,0,0,0,4.9423,4.9418,4.9415,4.9394,4.9388,4.9368,4.9359,4.9355,4.9346,4.9345,4.9321,4.9317,4.9303,4.9287,4.9283,4.9282,4.9276,4.9247,4.9247,4.9247,4.9264,4.9266,4.9267,0,0,0,0,0,4.9425,4.942,4.9415,4.9411,4.9384,4.9368,4.9364,4.935,4.9346,4.9343,4.9329,4.9318,4.9286,4.9286,4.9281,4.928,4.9247,4.9247,4.9247,4.9264,4.9266,4.9267,0,0,0,0,0,0,4.9439,4.9417,4.9411,4.9399,4.9386,4.9365,4.936,4.9352,4.9338,4.9336,4.9317,4.9312,4.93,4.9289,4.929,4.9271,4.9265,4.9264,4.9279,4.9281,4.9282,4.9285,4.9275,0,0,0,0,0,4.9442,4.9432,4.9412,4.9404,4.9398,4.938,4.9373,4.9363,4.9348,4.9341,4.9326,4.9311,4.9297,4.9288,4.9275,4.9263,4.9258,4.926,4.9261,4.9263,4.9262,4.9256,4.9257,4.9248,4.9248,4.9248,0,0,4.9445,4.9432,4.9426,4.9407,4.9395,4.9385,4.9375,4.9365,4.9357,4.9339,4.9326,4.9314,4.9296,4.9284,4.9278,4.9274,4.9264,4.9263,4.9264,4.9262,4.9257,4.9258,4.9258,4.9248,4.9248,4.9248,0,0,4.9447,4.9436,4.9428,4.9418,4.9402,4.9391,4.9389,4.937,4.9362,4.9349,4.9336,4.9326,4.9303,4.9291,4.9282,4.9282,4.9272,4.9278,4.9285,4.928,4.928,4.9281,4.9282,4.9282,4.9278,4.9278,4.9278,0,4.9453,4.9438,4.9425,4.9416,4.9408,4.9394,4.9387,4.9377,4.9356,4.935,4.9347,4.932,4.9306,4.9292,4.9292,4.9285,4.9283,4.928,4.9282,4.9282,4.9282,4.9283,4.9283,4.9279,4.9279,4.9279,4.9278,0,4.9447,4.9437,4.9433,4.9416,4.9407,4.9399,4.9384,4.9377,4.9369,4.9358,4.9345,4.9329,4.9313,4.9309,4.9299,4.9294,4.9292,4.9285,4.9278,4.9284,4.9284,4.9284,4.928,4.928,4.9279,4.9279,0,0,4.9454,4.9433,4.9431,4.9424,4.9407,4.9398,4.939,4.9376,4.937,4.9357,4.935,4.9332,4.9327,4.9316,4.9306,4.9302,4.9304,4.9295,4.9295,4.9298,4.9298,4.9303,4.9304,4.9298,4.9298,4.9298,4.93,0,4.9453,4.9438,4.9427,4.9416,4.9408,4.9396,4.9389,4.9377,4.9367,4.9358,4.9347,4.9335,4.9328,4.9322,4.9318,4.9305,4.9304,4.9305,4.929,4.929,4.9295,4.9303,4.9308,4.931,4.93,4.93,4.93,0,4.9449,4.9439,4.9428,4.9414,4.941,4.9403,4.9391,4.9382,4.9369,4.9362,4.9353,4.9343,4.9333,4.9329,4.9315,4.9316,4.931,4.9303,4.9303,4.93,4.9295,4.9301,4.931,4.9311,4.93,4.93,4.93,0,4.9456,4.944,4.9432,4.9426,4.9409,4.9405,4.9397,4.9384,4.9377,4.9366,4.9362,4.9349,4.9342,4.9332,4.9319,4.9317,4.9307,4.9301,4.9301,4.9302,4.9299,4.9299,4.9307,4.9295,4.9295,4.9295,4.9295,0,4.9456,4.945,4.9435,4.943,4.9422,4.941,4.9403,4.9395,4.9384,4.9377,4.9366,4.9359,4.9342,4.9333,4.9323,4.9314,4.9311,4.9305,4.9302,4.9306,4.9307,4.93,4.93,4.9295,4.9295,4.9295,4.9295,0,4.9462,4.9452,4.9442,4.9428,4.9424,4.942,4.9407,4.9401,4.9393,4.9384,4.9381,4.9366,4.9355,4.9342,4.9326,4.932,4.9312,4.9308,4.9317,4.9315,4.9316,4.9316,4.932,4.932,4.9309,4.9309,4.9309,0,4.9462,4.9457,4.9444,4.9439,4.9432,4.9424,4.9418,4.9407,4.9401,4.9387,4.9383,4.9373,4.9363,4.9347,4.9334,4.9323,4.9318,4.932,4.9316,4.932,4.9318,4.9319,4.9318,4.9321,4.9321,4.9321,4.9321,0,4.9464,4.946,4.9452,4.9443,4.9436,4.9428,4.9419,4.9416,4.9403,4.9396,4.9387,4.938,4.9366,4.9355,4.9343,4.9334,4.9325,4.9324,4.9323,4.9326,4.9332,4.9329,4.932,4.9323,4.9323,4.9323,4.9323,4.9322,4.9467,4.9463,4.9453,4.9445,4.9438,4.9431,4.9426,4.9417,4.941,4.9398,4.9392,4.9383,4.9371,4.9354,4.9347,4.9339,4.9335,4.9334,4.9334,4.9334,4.9335,4.9334,4.9336,4.9336,4.9336,4.9336,4.9336,0,4.9468,4.9462,4.9455,4.9445,4.9439,4.9434,4.9425,4.942,4.9412,4.9403,4.9395,4.9385,4.9375,4.9363,4.9353,4.9349,4.9345,4.9347,4.9346,4.9345,4.9339,4.934,4.935,4.935,4.935,4.935,4.935,4.935,4.9468,4.9461,4.9457,4.9447,4.944,4.9433,4.9428,4.9421,4.9414,4.9404,4.9397,4.939,4.938,4.9369,4.9361,4.9357,4.9354,4.9357,4.9352,4.9346,4.9345,4.9344,4.9345,4.9356,4.9356,4.9359,4.9359,4.9359]}]]